User: anonymous   Login
Location: Desert Center
(33.7130°N, 115.4010°W)
Time: 15:07:09
(UTC-08:00)
Language:

USA 215 - Orbit

View from above orbital plane
View from above orbital plane
View from above satellite
View from above satellite

Ground track
Ground track

The orbit data is extracted from the following two-line orbital elements,

1 37162U 10046A   14348.15971118 0.00000000  00000-0  00000-0 0    06
2 37162 122.9945 212.5929 0005247  92.7121 267.2879 13.41452480    06
Epoch (UTC): 14 December 2014 03:49:59
Eccentricity: 0.0005247
inclination: 122.9945°
perigee height: 1100 km
apogee height: 1108 km
right ascension of ascending node: 212.5929°
argument of perigee: 92.7121°
revolutions per day: 13.41452480
mean anomaly at epoch: 267.2879°
orbit number at epoch: 0

The dashed part of the orbit path shows where the satellite is in the earth's shadow,  

DLR